| time (UTC) | temp F | wind direction | speed knots | gust knots | rain 1hr in | rain 24hr in | rain mn in | humidity % | barometer mb |
| 20260505051537 | 44 | 179 | 8.7 | 13.0 | 0.00 | 0.15 | 0.00 | 84 | 1008.1 |
| 20260505041525 | 46 | 195 | 7.8 | 14.8 | 0.00 | 0.17 | 0.00 | 82 | 1007.2 |
| 20260505040024 | 46 | 182 | 8.7 | 13.0 | 0.00 | 0.17 | 0.00 | 82 | 1007.1 |
| 20260505034523 | 45 | 205 | 7.8 | 16.5 | 0.00 | 0.20 | 0.00 | 83 | 1006.9 |
| 20260505033021 | 45 | 183 | 7.8 | 15.6 | 0.00 | 0.20 | 0.00 | 82 | 1006.7 |
| 20260505031536 | 45 | 171 | 7.8 | 13.9 | 0.00 | 0.20 | 0.00 | 82 | 1006.4 |
| 20260505030014 | 45 | 198 | 6.1 | 14.8 | 0.00 | 0.20 | 0.20 | 81 | 1006.2 |
| 20260505024520 | 46 | 173 | 7.8 | 14.8 | 0.00 | 0.20 | 0.20 | 80 | 1006.0 |
| 20260505023013 | 46 | 161 | 8.7 | 17.4 | 0.00 | 0.20 | 0.20 | 79 | 1005.8 |
| 20260505021516 | 46 | 224 | 7.0 | 14.8 | 0.00 | 0.20 | 0.20 | 78 | 1005.7 |
| 20260505020022 | 47 | 155 | 8.7 | 15.6 | 0.00 | 0.21 | 0.20 | 77 | 1005.5 |
| 20260505014507 | 48 | 149 | 7.8 | 14.8 | 0.00 | 0.21 | 0.20 | 75 | 1005.3 |
| 20260505013007 | 48 | 168 | 7.8 | 14.8 | 0.00 | 0.21 | 0.20 | 74 | 1005.4 |
| 20260505011506 | 49 | 169 | 7.0 | 11.3 | 0.00 | 0.21 | 0.20 | 72 | 1005.4 |
| 20260505010004 | 49 | 163 | 9.6 | 15.6 | 0.00 | 0.23 | 0.20 | 71 | 1005.2 |
| 20260505004503 | 49 | 207 | 7.8 | 14.8 | 0.00 | 0.23 | 0.20 | 70 | 1005.1 |
| 20260505003004 | 49 | 197 | 5.2 | 13.9 | 0.00 | 0.23 | 0.20 | 69 | 1005.1 |
| 20260505001503 | 50 | 202 | 5.2 | 13.0 | 0.00 | 0.23 | 0.20 | 67 | 1005.3 |
| 20260505000004 | 49 | 218 | 7.8 | 13.9 | 0.00 | 0.27 | 0.20 | 66 | 1005.0 |
| 20260504234600 | 49 | 203 | 6.1 | 12.2 | 0.00 | 0.27 | 0.20 | 66 | 1004.9 |
| 20260504233101 | 50 | 197 | 7.8 | 13.0 | 0.00 | 0.27 | 0.20 | 64 | 1004.6 |
| 20260504231554 | 51 | 244 | 9.6 | 15.6 | 0.00 | 0.27 | 0.20 | 57 | 1003.9 |
| 20260504230105 | 51 | 232 | 9.6 | 18.2 | 0.00 | 0.27 | 0.20 | 57 | 1003.8 |
| 20260504224552 | 51 | 193 | 9.6 | 20.9 | 0.00 | 0.39 | 0.20 | 58 | 1003.8 |
| 20260504223051 | 51 | 223 | 10.4 | 20.9 | 0.00 | 0.39 | 0.20 | 60 | 1003.5 |
| 20260504221559 | 51 | 218 | 9.6 | 16.5 | 0.00 | 0.39 | 0.20 | 61 | 1003.5 |
| 20260504220047 | 51 | 226 | 10.4 | 20.0 | 0.00 | 0.39 | 0.20 | 62 | 1003.2 |
| 20260504214546 | 52 | 276 | 10.4 | 15.6 | 0.00 | 0.47 | 0.20 | 62 | 1002.9 |
| 20260504213046 | 52 | 230 | 8.7 | 16.5 | 0.00 | 0.47 | 0.20 | 64 | 1003.2 |
| 20260504211547 | 52 | 220 | 8.7 | 18.2 | 0.00 | 0.47 | 0.20 | 65 | 1002.9 |
| 20260504210041 | 51 | 213 | 10.4 | 18.2 | 0.00 | 0.47 | 0.20 | 66 | 1002.7 |
| 20260504204540 | 51 | 205 | 10.4 | 18.2 | 0.00 | 0.57 | 0.20 | 67 | 1002.6 |
| 20260504203037 | 52 | 228 | 9.6 | 15.6 | 0.00 | 0.57 | 0.20 | 69 | 1002.3 |
| 20260504201535 | 52 | 241 | 7.8 | 15.6 | 0.00 | 0.57 | 0.20 | 69 | 1002.2 |
| 20260504200034 | 52 | 268 | 7.0 | 13.9 | 0.00 | 0.57 | 0.20 | 70 | 1002.0 |
| 20260504194532 | 52 | 249 | 7.8 | 12.2 | 0.00 | 0.62 | 0.20 | 70 | 1001.6 |
| 20260504193030 | 52 | 250 | 6.1 | 19.1 | 0.00 | 0.62 | 0.20 | 71 | 1001.5 |
| 20260504191527 | 52 | 238 | 7.8 | 20.0 | 0.00 | 0.62 | 0.20 | 72 | 1001.4 |
| 20260504190024 | 51 | 251 | 7.8 | 16.5 | 0.00 | 0.62 | 0.20 | 73 | 1001.1 |
| 20260504184521 | 50 | 243 | 8.7 | 26.1 | 0.00 | 0.62 | 0.20 | 73 | 1000.9 |
| 20260504183020 | 50 | 334 | 11.3 | 24.3 | 0.00 | 0.62 | 0.20 | 74 | 1000.8 |
| 20260504181516 | 49 | 245 | 11.3 | 23.5 | 0.00 | 0.62 | 0.20 | 76 | 1000.6 |
| 20260504180012 | 48 | 263 | 10.4 | 22.6 | 0.00 | 0.63 | 0.20 | 80 | 1000.4 |
| 20260504174509 | 47 | 244 | 11.3 | 22.6 | 0.00 | 0.63 | 0.20 | 83 | 1000.3 |
| 20260504173006 | 47 | 243 | 12.2 | 22.6 | 0.00 | 0.63 | 0.20 | 84 | 1000.1 |
| 20260504171503 | 46 | 263 | 11.3 | 25.2 | 0.00 | 0.63 | 0.20 | 83 | 999.9 |
| 20260504081529 | 37 | 222 | 18.2 | 35.6 | 0.00 | 0.53 | 0.09 | 92 | 981.0 |